Location: LDNL
(36.4545°S, 141.6685°E)
Time: 04:02:19
(UTC+11:00)

Vanguard 2 - Pass Details

Date: 18 August 2022
Orbit: 552 x 2934 km, 32.9° (Epoch: 06 October)

Event Time Altitude Azimuth Distance (km) Brightness Sun altitude
Rises 20:58:04 0° 258° (WSW) 6,408 13.2 -35.9°
Reaches altitude 10° 21:02:59 10° 263° (W) 5,107 12.4 -36.8°
Maximum altitude 21:15:43 45° 328° (NNW) 2,266 9.8 -39.3°
Enters shadow 21:16:40 44° 342° (NNW) 2,218 9.7 -39.5°
Drops below altitude 10° 21:23:40 10° 38° (NE) 3,234 - -40.9°
Sets 21:26:06 0° 45° (NE) 3,935 - -41.3°
